Eau Claire, WI

7:05 AM CDT on June 27, 2017 (GMT -0500)
Chippewa Valley Regional

Weather History for KEAU - April, 2014

Change the Weather History Date:

Monday, April 14, 2014

  Actual Average Record
Temperature  
Mean Temperature 30 °F 45 °F  
Max Temperature 36 °F 57 °F 90 °F (2003)
Min Temperature 23 °F 34 °F 16 °F (1907)
Degree Days  
Heating Degree Days 35 20  
Month to date heating degree days 359 322  
Since 1 July heating degree days 8535 7386  
Cooling Degree Days 0 0  
Month to date cooling degree days 0 0  
Year to date cooling degree days 0 0  
Moisture  
Dew Point 19 °F    
Average Humidity 66    
Maximum Humidity 100    
Minimum Humidity 32    
Precipitation  
Precipitation 0.09 in 0.09 in 2.20 in (1911)
Month to date precipitation 2.40 1.16  
Year to date precipitation 6.33 4.59  
Snow  
Snow 1.50 in 0.10 in 6.00 in (1928)
Month to date snowfall 9.1 1.3  
Since 1 July snowfall 74.8 46.2  
Snow Depth 1.00 in    
Sea Level Pressure  
Sea Level Pressure 29.92 in    
Wind  
Wind Speed 12 mph (NNW)    
Max Wind Speed 21 mph    
Max Gust Speed 30 mph    
Visibility 8 miles    
Events Snow    
T = Trace of Precipitation, MM = Missing Value Source: NWS Daily Summary

Daily Weather History Graph

Daily Weather History Graph

Search for Another Location

Airport or City:

Trip Planner

Search our weather history database for the weather conditions in past years. The results will help you decide how hot, cold, wet, or windy it might be!

Date:

Astronomy

Apr. 14, 2014 Rise Set
Actual Time 6:23 AM CDT 7:50 PM CDT
Civil Twilight 5:52 AM CDT 8:20 PM CDT
Nautical Twilight 5:15 AM CDT 8:57 PM CDT
Astronomical Twilight 4:36 AM CDT 9:37 PM CDT
Moon 7:28 PM CDT (4/14) 5:57 AM CDT (4/14)
Length of Visible Light 14h 27m
Length of Day
13h 26m
Full, 100% of the Moon is Illuminated
Apr 14
Full
Apr 15
Full
Apr 22
Last Quarter
Apr 29
New
May 6
First Quarter

Hourly Weather History & Observations

Time (CDT) Temp. Windchill Dew Point Humidity Pressure Visibility Wind Dir Wind Speed Gust Speed Precip Events Conditions
12:56 AM 30.9 °F 21.2 °F 30.0 °F 96% 29.82 in 1.5 mi North 12.7 mph 27.6 mph 0.04 in Snow Light Snow
1:09 AM 30.9 °F 20.7 °F 30.0 °F 96% 29.80 in 1.8 mi North 13.8 mph 23.0 mph 0.00 in Snow Light Snow
1:13 AM 30.9 °F 20.7 °F 30.0 °F 96% 29.79 in 2.0 mi North 13.8 mph 23.0 mph 0.01 in Snow Light Snow
1:27 AM 32.0 °F 22.5 °F 28.9 °F 88% 29.78 in 2.5 mi North 12.7 mph - 0.01 in Snow Light Snow
1:34 AM 32.0 °F 23.0 °F 28.0 °F 85% 29.78 in 5.0 mi North 11.5 mph - 0.01 in Snow Light Snow
1:56 AM 33.1 °F 25.5 °F 27.0 °F 78% 29.80 in 10.0 mi North 9.2 mph 23.0 mph 0.01 in   Overcast
2:56 AM 32.0 °F 20.8 °F 24.1 °F 73% 29.81 in 10.0 mi North 17.3 mph 28.8 mph N/A   Overcast
3:56 AM 30.9 °F 21.7 °F 23.0 °F 72% 29.85 in 10.0 mi North 11.5 mph 23.0 mph N/A   Overcast
4:18 AM 30.9 °F 21.2 °F 23.0 °F 72% 29.82 in 8.0 mi North 12.7 mph 23.0 mph 0.00 in Snow Light Snow
4:56 AM 30.0 °F 21.1 °F 21.9 °F 72% 29.85 in 10.0 mi North 10.4 mph - 0.00 in   Overcast
5:56 AM 30.0 °F 19.1 °F 21.0 °F 69% 29.87 in 10.0 mi North 15.0 mph 21.9 mph N/A   Overcast
6:25 AM 30.0 °F 18.7 °F 19.9 °F 66% 29.85 in 10.0 mi North 16.1 mph 26.5 mph N/A   Overcast
6:56 AM 28.9 °F 18.2 °F 19.9 °F 69% 29.90 in 10.0 mi NNW 13.8 mph 23.0 mph N/A   Overcast
7:56 AM 28.9 °F 18.6 °F 19.0 °F 67% 29.96 in 10.0 mi NNW 12.7 mph 20.7 mph N/A   Overcast
8:56 AM 30.0 °F 20.0 °F 19.0 °F 64% 29.97 in 10.0 mi North 12.7 mph 21.9 mph N/A   Overcast
9:56 AM 30.0 °F 20.5 °F 18.0 °F 61% 29.98 in 10.0 mi NNW 11.5 mph 20.7 mph N/A   Overcast
10:56 AM 30.9 °F 21.2 °F 18.0 °F 59% 29.99 in 10.0 mi NNW 12.7 mph - N/A   Overcast
11:56 AM 32.0 °F 23.6 °F 17.1 °F 54% 30.01 in 10.0 mi North 10.4 mph 20.7 mph N/A   Overcast
12:56 PM 33.1 °F 24.4 °F 16.0 °F 50% 30.02 in 10.0 mi NNW 11.5 mph 23.0 mph N/A   Overcast
1:56 PM 34.0 °F 23.8 °F 14.0 °F 44% 30.02 in 10.0 mi NNW 16.1 mph 23.0 mph N/A   Overcast
2:56 PM 35.1 °F 25.2 °F 12.9 °F 40% 30.02 in 10.0 mi NNW 16.1 mph 25.3 mph N/A   Mostly Cloudy
3:56 PM 35.1 °F 24.5 °F 10.0 °F 35% 30.02 in 10.0 mi NNW 18.4 mph 23.0 mph N/A   Mostly Cloudy
4:56 PM 36.0 °F 26.0 °F 9.0 °F 33% 30.01 in 10.0 mi NNW 17.3 mph 24.2 mph N/A   Overcast
5:56 PM 34.0 °F 24.2 °F 9.0 °F 35% 30.02 in 10.0 mi North 15.0 mph 21.9 mph N/A   Overcast
6:56 PM 30.9 °F 21.7 °F 9.0 °F 40% 30.05 in 10.0 mi NNW 11.5 mph 18.4 mph N/A   Scattered Clouds
7:56 PM 28.9 °F 21.1 °F 8.1 °F 41% 30.07 in 10.0 mi North 8.1 mph - N/A   Partly Cloudy
9:56 PM 26.1 °F 19.4 °F 9.0 °F 49% 30.10 in 10.0 mi NNW 5.8 mph - N/A   Clear